| time (UTC) | temp C | wind direction | speed KPH | gust KPH | rain 1hr cm | rain 24hr cm | rain mn cm | humidity % | barometer mb |
| 20260507090016 | 13 | 135 | 6.4 | 17.7 | 0.00 | 0.00 | 0.00 | 81 | 1018.2 |
| 20260507083016 | 12 | 135 | 4.8 | 17.7 | 0.00 | 0.00 | 0.00 | 83 | 1018.2 |
| 20260507080015 | 12 | 135 | 3.2 | 9.7 | 0.00 | 0.00 | 0.00 | 82 | 1018.3 |
| 20260507073016 | 11 | 90 | 1.6 | 9.7 | 0.00 | 0.00 | 0.00 | 83 | 1018.0 |
| 20260507070016 | 10 | 0.0 | 4.8 | 0.00 | 0.00 | 0.00 | 86 | 1017.9 | |
| 20260507063036 | 8 | 0.0 | 0.0 | 0.00 | 0.00 | 0.00 | 87 | 1017.8 | |
| 20260507060015 | 7 | 0.0 | 4.8 | 0.00 | 0.00 | 0.00 | 88 | 1017.7 | |
| 20260507053015 | 7 | 0.0 | 6.4 | 0.00 | 0.00 | 0.00 | 89 | 1017.4 | |
| 20260507050017 | 6 | 0.0 | 1.6 | 0.00 | 0.00 | 0.00 | 89 | 1017.3 | |
| 20260507043017 | 6 | 0.0 | 1.6 | 0.00 | 0.00 | 0.00 | 89 | 1017.4 | |
| 20260507040037 | 5 | 0.0 | 3.2 | 0.00 | 0.00 | 0.00 | 89 | 1017.4 | |
| 20260507033017 | 5 | 0.0 | 1.6 | 0.00 | 0.00 | 0.00 | 89 | 1017.2 | |
| 20260507030017 | 5 | 0.0 | 3.2 | 0.00 | 0.00 | 0.00 | 89 | 1017.2 | |
| 20260507023057 | 5 | 0.0 | 1.6 | 0.00 | 0.00 | 0.00 | 88 | 1017.2 | |
| 20260507020017 | 5 | 0.0 | 0.0 | 0.00 | 0.00 | 0.00 | 87 | 1017.1 | |
| 20260507013037 | 6 | 0.0 | 1.6 | 0.00 | 0.00 | 0.00 | 86 | 1017.1 | |
| 20260507010017 | 6 | 0.0 | 1.6 | 0.00 | 0.00 | 0.00 | 85 | 1017.2 | |
| 20260507003037 | 7 | 0.0 | 1.6 | 0.00 | 0.00 | 0.00 | 83 | 1017.2 | |
| 20260507000017 | 7 | 0.0 | 0.0 | 0.00 | 0.00 | 0.00 | 83 | 1017.2 | |
| 20260506233017 | 7 | 0.0 | 0.0 | 0.00 | 0.00 | 0.00 | 80 | 1017.1 | |
| 20260506230017 | 8 | 0.0 | 1.6 | 0.00 | 0.00 | 0.00 | 79 | 1017.1 | |
| 20260506223017 | 8 | 0.0 | 3.2 | 0.00 | 0.00 | 0.00 | 78 | 1017.0 | |
| 20260506220017 | 10 | 0.0 | 3.2 | 0.00 | 0.00 | 0.00 | 72 | 1016.9 | |
| 20260506213017 | 11 | 0.0 | 4.8 | 0.00 | 0.00 | 0.00 | 69 | 1016.7 | |
| 20260506210037 | 12 | 0.0 | 1.6 | 0.00 | 0.00 | 0.00 | 69 | 1016.5 | |
| 20260506203037 | 12 | 0.0 | 3.2 | 0.00 | 0.00 | 0.00 | 66 | 1016.4 | |
| 20260506200017 | 13 | 0.0 | 0.0 | 0.00 | 0.00 | 0.00 | 63 | 1016.1 | |
| 20260506193017 | 13 | 0.0 | 1.6 | 0.00 | 0.00 | 0.00 | 61 | 1015.7 | |
| 20260506190017 | 13 | 0.0 | 4.8 | 0.00 | 0.00 | 0.00 | 60 | 1015.5 | |
| 20260506183017 | 13 | 45 | 1.6 | 6.4 | 0.00 | 0.00 | 0.00 | 59 | 1015.4 |
| 20260506180017 | 14 | 45 | 1.6 | 6.4 | 0.00 | 0.00 | 0.00 | 59 | 1015.2 |
| 20260506173016 | 13 | 248 | 3.2 | 9.7 | 0.00 | 0.00 | 0.00 | 70 | 1015.0 |
| 20260506170016 | 14 | 248 | 1.6 | 11.3 | 0.00 | 0.00 | 0.00 | 57 | 1014.9 |
| 20260506163016 | 14 | 225 | 1.6 | 11.3 | 0.00 | 0.00 | 0.00 | 64 | 1015.1 |
| 20260506160016 | 14 | 225 | 3.2 | 12.9 | 0.00 | 0.00 | 0.00 | 63 | 1015.1 |
| 20260506153036 | 14 | 225 | 4.8 | 12.9 | 0.00 | 0.00 | 0.00 | 63 | 1015.3 |
| 20260506150016 | 14 | 225 | 3.2 | 11.3 | 0.00 | 0.00 | 0.00 | 65 | 1015.4 |
| 20260506143016 | 14 | 225 | 3.2 | 11.3 | 0.00 | 0.00 | 0.00 | 57 | 1015.4 |
| 20260506140016 | 14 | 68 | 3.2 | 14.5 | 0.00 | 0.00 | 0.00 | 58 | 1015.4 |
| 20260506133016 | 15 | 68 | 4.8 | 20.9 | 0.00 | 0.00 | 0.00 | 51 | 1015.4 |
| 20260506130016 | 15 | 0 | 4.8 | 14.5 | 0.00 | 0.00 | 0.00 | 50 | 1015.5 |
| 20260506123016 | 15 | 45 | 4.8 | 20.9 | 0.00 | 0.00 | 0.00 | 52 | 1015.4 |
| 20260506120016 | 15 | 338 | 6.4 | 24.1 | 0.00 | 0.00 | 0.00 | 51 | 1015.6 |
| 20260506113016 | 14 | 68 | 6.4 | 16.1 | 0.00 | 0.00 | 0.00 | 54 | 1015.7 |
| 20260506110016 | 13 | 45 | 8.0 | 17.7 | 0.00 | 0.00 | 0.00 | 51 | 1015.8 |
| 20260506103036 | 13 | 23 | 8.0 | 22.5 | 0.00 | 0.00 | 0.00 | 59 | 1015.7 |
| 20260506100016 | 12 | 45 | 8.0 | 22.5 | 0.00 | 0.00 | 0.00 | 62 | 1015.8 |
| 20260506093016 | 11 | 45 | 6.4 | 17.7 | 0.00 | 0.00 | 0.00 | 71 | 1015.8 |